Weather in Belovskoe

Russia / Belgorod Oblast     50°34′40″N   36°44′02″E
temp.,
°C
wind,
m/s
gust,
m/s
humid.,
%
clouds,
%
prec.,
mm/h
press.,
hPa
HPBL,
m
8 march, mon
mon800:00−1wsw9159199 0.2 1009957
03:00−1wsw7129099 0.4 1008767
06:00−1wsw71294100 0.6 1007739
09:000wsw8128899 1.1 1007801
12:00+1wsw71079100 0.4 1008959
15:00−1nw4887100 1.6 1008576
18:00−1wnw378099 0.3 1009296
21:00−3wnw368682 0.3 1010222
9 march, tue
tue900:00−3wnw2587100 0.1 1011268
03:00−3wnw249197 0.2 1012253
06:00−4nw478895 0.6 1013523
09:00−5nnw578392 0.6 1014536
12:00−4nw5672100 0.1 1016916
15:00−4nw6767100 0.1 10181107
18:00−5nnw5772100 0.1 10191021
21:00−7nnw5772100 0.1 1022916
10 march, wed
wed1000:00−7nw467782 0.0 1023801
03:00−9nw458185 0.0 1025461
06:00−10nnw368433 0.0 1026369
09:00−9nnw347716 0.0 1027428
12:00−6nnw345727 0.0 1028817
15:00−5nnw334823 0.0 1028927
18:00−5nnw335765 0.0 1027785
21:00−6nne236860 0.0 1028431
11 march, thu
thu1100:00−7e237781 0.0 1029391
03:00−9e458690 0.2 1030402
06:00−10e458297 0.1 1031410
09:00−10e456490 0.1 1032465
12:00−8e445074 0.0 1032729
15:00−7ese334082 0.0 10321002
18:00−7e334032 0.0 1031856
21:00−8ese454818 0.0 1032595
12 march, fri
fri1200:00−9se47540 0.0 1033523
03:00−10se46570 0.0 1032443
06:00−11se46610 0.0 1033338
09:00−10sse47530 0.0 1033459
12:00−6sse57381 0.0 1032749
15:00−4sse573151 0.0 1031917
18:00−4sse5833100 0.0 1030915
21:00−5sse61135100 0.0 1030785